DW6033 Weather Reports


time (UTC)temp
C
wind
direction
speed
KPH
gust
KPH
rain 1hr
cm
rain 24hr
cm
rain mn
cm
humidity
%
barometer
mb
20260508121533 9 281 12.9 33.8 0.00 0.00 0.00 53 1008.3
20260508120028 9 295 12.9 27.4 0.00 0.00 0.00 55 1008.5
20260508114528 8 263 17.7 25.7 0.00 0.00 0.00 55 1008.6
20260508113033 8 287 14.5 25.7 0.00 0.00 0.00 56 1008.6
20260508111524 8 290 14.5 20.9 0.00 0.00 0.00 56 1008.5
20260508110023 8 321 6.4 14.5 0.00 0.00 0.00 59 1008.4
20260508104521 7 287 11.3 17.7 0.00 0.00 0.00 61 1008.2
20260508103022 7 306 8.0 12.9 0.00 0.00 0.00 64 1008.0
20260508101522 6 306 6.4 11.3 0.00 0.00 0.00 66 1007.9
20260508100018 6 285 8.0 11.3 0.00 0.00 0.00 66 1007.5
20260508094514 6 316 6.4 9.7 0.00 0.00 0.00 66 1007.2
20260508093012 6 292 6.4 11.3 0.00 0.00 0.00 66 1007.0
20260508091522 6 299 6.4 11.3 0.00 0.00 0.00 66 1007.0
20260508090013 6 312 6.4 9.7 0.00 0.00 0.00 66 1006.7
20260508084503 6 311 4.8 6.4 0.00 0.00 0.00 66 1006.8
20260508083100 7 306 4.8 8.0 0.00 0.00 0.00 60 1006.7
20260508081558 7 325 3.2 9.7 0.00 0.00 0.00 58 1006.5
20260508080059 7 306 4.8 9.7 0.00 0.00 0.00 59 1006.5
20260508074555 7 330 6.4 11.3 0.00 0.00 0.00 56 1006.4
20260508073054 7 283 6.4 12.9 0.00 0.00 0.00 57 1006.3
20260508071554 7 308 6.4 16.1 0.00 0.00 0.00 55 1006.1
20260508070053 7 282 8.0 16.1 0.00 0.00 0.00 55 1006.1
20260508064551 8 325 8.0 14.5 0.00 0.03 0.00 55 1006.3
20260508063115 8 313 11.3 19.3 0.00 0.03 0.00 55 1006.2
20260508061546 8 310 9.7 17.7 0.00 0.03 0.00 54 1006.2
20260508060041 8 326 11.3 22.5 0.00 0.03 0.00 53 1006.5
20260508054542 8 339 8.0 16.1 0.00 0.38 0.00 52 1006.6
20260508053051 8 277 6.4 17.7 0.00 0.38 0.00 52 1006.6
20260508051602 8 273 8.0 14.5 0.00 0.38 0.00 54 1006.5
20260508050035 8 311 8.0 14.5 0.00 0.38 0.00 51 1006.7
20260508044534 8 278 8.0 16.1 0.00 0.43 0.00 51 1006.7
20260508043032 8 285 11.3 24.1 0.00 0.43 0.00 51 1006.6
20260508041529 8 305 11.3 17.7 0.00 0.43 0.00 51 1006.7
20260508040025 8 296 9.7 16.1 0.00 0.43 0.00 50 1006.8
20260508034528 8 311 9.7 16.1 0.00 0.43 0.43 50 1006.8
20260508033032 9 290 12.9 17.7 0.00 0.43 0.43 49 1007.0
20260508031524 9 296 12.9 20.9 0.00 0.43 0.43 49 1007.0
20260508030024 10 300 12.9 24.1 0.00 0.43 0.43 47 1006.9
20260508024525 10 300 11.3 19.3 0.00 0.43 0.43 49 1006.7
20260508023028 10 286 16.1 25.7 0.00 0.43 0.43 48 1006.6
20260508021531 10 309 8.0 14.5 0.00 0.43 0.43 49 1006.4
20260508020022 10 348 6.4 16.1 0.00 0.43 0.43 46 1006.6
20260508014522 11 338 4.8 14.5 0.00 0.61 0.43 47 1006.5
20260508013021 11 325 16.1 27.4 0.00 0.61 0.43 46 1006.3
20260508011527 11 288 14.5 20.9 0.00 0.61 0.43 44 1006.4
20260508010035 12 326 12.9 27.4 0.00 0.61 0.43 44 1006.2
20260508004520 12 309 17.7 27.4 0.00 0.94 0.43 44 1005.7
20260508003019 12 309 16.1 30.6 0.00 0.94 0.43 45 1005.7
20260508001519 13 337 11.3 19.3 0.00 0.94 0.43 45 1005.4
20260508000019 13 303 14.5 32.2 0.00 0.94 0.43 43 1005.1
20260507234519 14 313 17.7 27.4 0.00 1.40 0.43 41 1004.9
20260507233018 15 274 14.5 25.7 0.00 1.40 0.43 34 1004.7
20260507231517 15 321 11.3 22.5 0.00 1.40 0.43 35 1004.4
20260507230021 15 275 19.3 33.8 0.00 1.40 0.43 34 1004.1
20260507224511 16 317 12.9 25.7 0.00 1.80 0.43 35 1003.7
20260507223009 16 277 16.1 33.8 0.00 1.80 0.43 38 1003.6
20260507221506 12 78 9.7 14.5 0.00 1.80 0.43 73 1003.5
20260507220005 14 126 8.0 12.9 0.00 1.80 0.43 65 1003.5
20260507214505 15 209 4.8 9.7 0.00 2.01 0.43 58 1003.6
20260507213005 14 289 4.8 12.9 0.00 2.01 0.43 60 1003.6
20260507211504 14 190 8.0 14.5 0.00 2.01 0.43 60 1003.6
20260507210003 14 261 8.0 17.7 0.00 2.01 0.43 62 1003.6
20260507204502 13 115 6.4 12.9 0.00 2.13 0.43 66 1003.5
20260507203005 14 165 6.4 16.1 0.00 2.13 0.43 64 1003.5
20260507201501 14 209 6.4 16.1 0.00 2.13 0.43 63 1003.3
20260507200001 14 261 9.7 19.3 0.00 2.13 0.43 62 1003.4
20260507194601 14 143 8.0 19.3 0.00 2.13 0.43 64 1003.5
20260507193101 14 221 8.0 27.4 0.00 2.13 0.43 64 1003.7
20260507191600 14 259 11.3 25.7 0.00 2.13 0.43 66 1003.7
20260507190059 15 213 12.9 27.4 0.00 2.13 0.43 65 1003.4
20260507184556 13 185 8.0 14.5 0.00 2.13 0.43 73 1003.6
20260507183055 11 61 4.8 8.0 0.00 2.13 0.43 81 1003.8
20260507181551 11 118 4.8 8.0 0.00 2.13 0.43 83 1003.9
20260507180051 10 79 4.8 17.7 0.00 2.13 0.43 84 1004.2
20260507174556 10 80 12.9 19.3 0.00 2.13 0.43 85 1004.2
20260507173054 12 119 6.4 17.7 0.00 2.13 0.43 78 1004.5
20260507171559 11 143 16.1 22.5 0.00 2.13 0.43 75 1004.4
20260507170050 11 145 9.7 17.7 0.00 2.13 0.43 76 1004.7
20260507164549 11 158 14.5 22.5 0.00 2.13 0.43 77 1004.8
20260507163046 11 145 19.3 24.1 0.00 2.13 0.43 78 1005.1
20260507161553 11 117 16.1 22.5 0.00 2.13 0.43 79 1005.1
20260507160045 11 134 12.9 19.3 0.00 2.13 0.43 78 1005.3
20260507154545 11 121 14.5 19.3 0.00 2.13 0.43 81 1005.5
20260507153057 11 134 11.3 17.7 0.00 2.13 0.43 82 1005.5
20260507151543 10 152 11.3 17.7 0.00 2.13 0.43 84 1005.7
20260507150049 10 140 9.7 16.1 0.00 2.13 0.43 84 1005.7
20260507144542 9 135 16.1 22.5 0.00 2.13 0.43 88 1005.8
20260507143041 8 122 16.1 19.3 0.00 2.13 0.43 88 1006.0
20260507141538 9 127 12.9 16.1 0.00 2.13 0.43 87 1006.2
20260507140037 9 134 11.3 19.3 0.00 2.13 0.43 84 1006.2
20260507134537 11 122 4.8 11.3 0.00 2.16 0.43 74 1006.2
20260507133035 12 294 6.4 16.1 0.00 2.16 0.43 70 1006.2
20260507131534 11 309 6.4 19.3 0.00 2.16 0.43 72 1006.5
20260507130052 11 311 12.9 20.9 0.00 2.16 0.43 74 1006.3
20260507124530 10 332 4.8 16.1 0.00 2.16 0.43 79 1006.3
20260507123029 10 270 12.9 19.3 0.00 2.16 0.43 80 1006.4